,,PA_Meas_PMT16A,,PR_Meas_QMR101_102,,RH_Meas_QMH101,,SR_Meas_QMS101,,TA_Meas_QMH101,,GenWind,,GenWind,
time,status,PA,status,PR,status,RH,status,SR,status,TA,status,DirAvg,status,SpdAvg,
2009-09-04, 00:00:04,VALID,917.886,VALID,0,VALID,96.5658,VALID,0.107441,VALID,19.6038,VALID,183,VALID,0.433984,
2009-09-04, 00:01:04,VALID,917.843,VALID,0,VALID,96.5506,VALID,0,VALID,19.5843,VALID,183,VALID,0.230078,
2009-09-04, 00:02:04,VALID,917.841,VALID,0,VALID,96.5429,VALID,0.107441,VALID,19.5633,VALID,183,VALID,0.100391,
2009-09-04, 00:03:04,VALID,917.781,VALID,0,VALID,96.5658,VALID,0.107441,VALID,19.5843,VALID,183,VALID,0,
2009-09-04, 00:04:04,VALID,917.818,VALID,0,VALID,96.5582,VALID,0,VALID,19.5438,VALID,183,VALID,0,
2009-09-04, 00:05:04,VALID,917.831,VALID,0,VALID,96.5658,VALID,0,VALID,19.5648,VALID,183,VALID,0,
2009-09-04, 00:06:04,VALID,917.803,VALID,0,VALID,96.6192,VALID,0,VALID,19.5648,VALID,183,VALID,0,
2009-09-04, 00:07:04,VALID,917.803,VALID,0,VALID,96.6115,VALID,0,VALID,19.6053,VALID,183,VALID,0,
2009-09-04, 00:08:04,VALID,917.81,VALID,0,VALID,96.642,VALID,0.107441,VALID,19.6038,VALID,183,VALID,0,
2009-09-04, 00:09:04,VALID,917.808,VALID,0,VALID,96.5734,VALID,0,VALID,19.5648,VALID,183,VALID,0.393359,
2009-09-04, 00:10:04,VALID,917.79,VALID,0,VALID,96.6039,VALID,0,VALID,19.5648,VALID,183,VALID,0.328906,
2009-09-04, 00:11:04,VALID,917.761,VALID,0,VALID,96.6039,VALID,0,VALID,19.5858,VALID,183,VALID,0.295703,
2009-09-04, 00:12:04,VALID,917.789,VALID,0,VALID,96.6192,VALID,0,VALID,19.5843,VALID,183,VALID,0.308594,
2009-09-04, 00:13:04,VALID,917.81,VALID,0,VALID,96.5582,VALID,0.107441,VALID,19.5453,VALID,183,VALID,0.405859,
2009-09-04, 00:14:04,VALID,917.807,VALID,0,VALID,96.6725,VALID,0,VALID,19.6038,VALID,183,VALID,0.543359,
2009-09-04, 00:15:04,VALID,917.736,VALID,0,VALID,96.642,VALID,0,VALID,19.6233,VALID,183,VALID,0.360938,
2009-09-04, 00:16:04,VALID,917.77,VALID,0,VALID,96.5201,VALID,0,VALID,19.5843,VALID,183,VALID,0.189844,
2009-09-04, 00:17:04,VALID,917.766,VALID,0,VALID,96.4743,VALID,0,VALID,19.5258,VALID,183,VALID,0.144922,
2009-09-04, 00:18:04,VALID,917.737,VALID,0,VALID,96.5506,VALID,0,VALID,19.5048,VALID,183,VALID,0.325391,
2009-09-04, 00:19:04,VALID,917.746,VALID,0,VALID,96.6192,VALID,0.107441,VALID,19.5648,VALID,183,VALID,0.503125,
2009-09-04, 00:20:04,VALID,917.77,VALID,0,VALID,96.5811,VALID,0,VALID,19.5648,VALID,183,VALID,0.419141,
2009-09-04, 00:21:04,VALID,917.811,VALID,0,VALID,96.642,VALID,0,VALID,19.5453,VALID,183,VALID,0.394141,
2009-09-04, 00:22:04,VALID,917.765,VALID,0,VALID,96.6039,VALID,0.107441,VALID,19.5843,VALID,183,VALID,0.339844,
2009-09-04, 00:23:04,VALID,917.756,VALID,0,VALID,96.5353,VALID,0,VALID,19.5468,VALID,183,VALID,0.110937,
2009-09-04, 00:24:04,VALID,917.733,VALID,0,VALID,96.5734,VALID,0,VALID,19.5273,VALID,183,VALID,0,
2009-09-04, 00:25:04,VALID,917.696,VALID,0,VALID,96.6497,VALID,0,VALID,19.5663,VALID,183,VALID,0,
2009-09-04, 00:26:04,VALID,917.672,VALID,0,VALID,96.6649,VALID,0,VALID,19.5843,VALID,183,VALID,0.354297,
2009-09-04, 00:27:04,VALID,917.64,VALID,0,VALID,96.6725,VALID,0,VALID,19.6053,VALID,183,VALID,0.778516,
2009-09-04, 00:28:04,VALID,917.654,VALID,0,VALID,96.6954,VALID,0,VALID,19.6248,VALID,183,VALID,0.797266,
2009-09-04, 00:29:04,VALID,917.721,VALID,0,VALID,96.6497,VALID,0,VALID,19.6053,VALID,183,VALID,0.716016,
2009-09-04, 00:30:04,VALID,917.723,VALID,0,VALID,96.6725,VALID,0,VALID,19.6248,VALID,183,VALID,0.825391,
2009-09-04, 00:31:04,VALID,917.737,VALID,0,VALID,96.6802,VALID,0,VALID,19.6248,VALID,183,VALID,0.755469,
2009-09-04, 00:32:04,VALID,917.716,VALID,0,VALID,96.6802,VALID,0,VALID,19.6233,VALID,183,VALID,0.871484,
2009-09-04, 00:33:04,VALID,917.711,VALID,0,VALID,96.7259,VALID,0,VALID,19.6638,VALID,183,VALID,0.751562,
2009-09-04, 00:34:04,VALID,917.666,VALID,0,VALID,96.7411,VALID,0,VALID,19.7028,VALID,183,VALID,0.635156,
2009-09-04, 00:35:04,VALID,917.62,VALID,0,VALID,96.7335,VALID,0,VALID,19.7223,VALID,183,VALID,0.845312,
2009-09-04, 00:36:04,VALID,917.602,VALID,0,VALID,96.6115,VALID,0,VALID,19.6833,VALID,183,VALID,0.932813,
2009-09-04, 00:37:04,VALID,917.623,VALID,0,VALID,96.6725,VALID,0,VALID,19.6638,VALID,183,VALID,0.867578,
2009-09-04, 00:38:04,VALID,917.63,VALID,0,VALID,96.7183,VALID,0,VALID,19.7028,VALID,183,VALID,0.756641,
2009-09-04, 00:39:04,VALID,917.608,VALID,0,VALID,96.7488,VALID,0,VALID,19.7028,VALID,182,VALID,1.13633,
2009-09-04, 00:40:04,VALID,917.619,VALID,0,VALID,96.8098,VALID,0,VALID,19.7793,VALID,182,VALID,1.3793,
2009-09-04, 00:41:04,VALID,917.597,VALID,0,VALID,96.8174,VALID,0.107441,VALID,19.7778,VALID,182,VALID,1.33359,
2009-09-04, 00:42:04,VALID,917.563,VALID,0,VALID,96.8021,VALID,0,VALID,19.8588,VALID,182,VALID,1.38398,
2009-09-04, 00:43:04,VALID,917.541,VALID,0,VALID,96.764,VALID,0,VALID,19.8393,VALID,182,VALID,0.642969,
2009-09-04, 00:44:04,VALID,917.52,VALID,0,VALID,96.7716,VALID,0,VALID,19.8393,VALID,182,VALID,1.08867,
2009-09-04, 00:45:04,VALID,917.52,VALID,0,VALID,96.764,VALID,0,VALID,19.8588,VALID,182,VALID,0.9625,
2009-09-04, 00:46:04,VALID,917.57,VALID,0,VALID,96.7716,VALID,0,VALID,19.8588,VALID,182,VALID,1.33164,
2009-09-04, 00:47:04,VALID,917.556,VALID,0,VALID,96.7793,VALID,0,VALID,19.8783,VALID,182,VALID,0.710938,
2009-09-04, 00:48:04,VALID,917.585,VALID,0,VALID,96.7793,VALID,0,VALID,19.8978,VALID,182,VALID,1.17188,
2009-09-04, 00:49:04,VALID,917.578,VALID,0,VALID,96.8021,VALID,0,VALID,19.8978,VALID,182,VALID,1.03477,
2009-09-04, 00:50:04,VALID,917.557,VALID,0,VALID,96.7716,VALID,0,VALID,19.8978,VALID,182,VALID,0.43125,
2009-09-04, 00:51:04,VALID,917.539,VALID,0,VALID,96.8021,VALID,0,VALID,19.8978,VALID,182,VALID,0.964844,
2009-09-04, 00:52:04,VALID,917.5,VALID,0,VALID,96.7869,VALID,0,VALID,19.8978,VALID,182,VALID,1.09648,
2009-09-04, 00:53:04,VALID,917.526,VALID,0,VALID,96.7945,VALID,0,VALID,19.8963,VALID,182,VALID,0.9625,
2009-09-04, 00:54:04,VALID,917.578,VALID,0,VALID,96.7869,VALID,0,VALID,19.8963,VALID,182,VALID,0.692187,
2009-09-04, 00:55:04,VALID,917.617,VALID,0,VALID,96.7869,VALID,0,VALID,19.9368,VALID,182,VALID,1.2375,
2009-09-04, 00:56:04,VALID,917.62,VALID,0,VALID,96.7945,VALID,0,VALID,19.9158,VALID,182,VALID,0.798828,
2009-09-04, 00:57:04,VALID,917.601,VALID,0,VALID,96.7793,VALID,0,VALID,19.9368,VALID,182,VALID,1.23047,
2009-09-04, 00:58:04,VALID,917.607,VALID,0,VALID,96.7869,VALID,0,VALID,19.9158,VALID,182,VALID,0.787109,
2009-09-04, 00:59:04,VALID,917.633,VALID,0,VALID,96.7793,VALID,0,VALID,19.9368,VALID,182,VALID,0.854297,
2009-09-04, 01:00:04,VALID,917.576,VALID,0,VALID,96.7716,VALID,0,VALID,19.9158,VALID,182,VALID,0.929688,
2009-09-04, 01:01:04,VALID,917.595,VALID,0,VALID,96.7945,VALID,0,VALID,19.9173,VALID,182,VALID,0.978516,
2009-09-04, 01:02:04,VALID,917.593,VALID,0,VALID,96.7945,VALID,0.107441,VALID,19.9158,VALID,182,VALID,1.14453,
2009-09-04, 01:03:04,VALID,917.686,VALID,0,VALID,96.7869,VALID,0,VALID,19.9173,VALID,182,VALID,0.896094,
2009-09-04, 01:04:04,VALID,917.693,VALID,0,VALID,96.7869,VALID,0,VALID,19.9563,VALID,182,VALID,1.19258,
2009-09-04, 01:05:04,VALID,917.69,VALID,0,VALID,96.8021,VALID,0,VALID,19.9158,VALID,155,VALID,1.11719,
2009-09-04, 01:06:04,VALID,917.692,VALID,0,VALID,96.825,VALID,0,VALID,19.9353,VALID,155,VALID,0.583984,
2009-09-04, 01:07:04,VALID,917.641,VALID,0,VALID,96.8021,VALID,0,VALID,19.9563,VALID,155,VALID,0.732031,
2009-09-04, 01:08:04,VALID,917.631,VALID,0,VALID,96.8021,VALID,0,VALID,19.9353,VALID,155,VALID,1.00898,
2009-09-04, 01:09:04,VALID,917.564,VALID,0,VALID,96.8098,VALID,0,VALID,19.9548,VALID,155,VALID,0.711719,
2009-09-04, 01:10:04,VALID,917.557,VALID,0,VALID,96.8021,VALID,0,VALID,19.9563,VALID,155,VALID,0.739062,
2009-09-04, 01:11:04,VALID,917.603,VALID,0,VALID,96.7945,VALID,0,VALID,19.9368,VALID,155,VALID,0.526563,
2009-09-04, 01:12:04,VALID,917.602,VALID,0,VALID,96.7945,VALID,0,VALID,19.9158,VALID,155,VALID,0.520312,
2009-09-04, 01:13:04,VALID,917.6,VALID,0,VALID,96.8174,VALID,0,VALID,19.9353,VALID,155,VALID,0.512891,
2009-09-04, 01:14:04,VALID,917.579,VALID,0,VALID,96.8098,VALID,0,VALID,19.9353,VALID,155,VALID,0.534766,
2009-09-04, 01:15:04,VALID,917.575,VALID,0,VALID,96.8021,VALID,0,VALID,19.9758,VALID,155,VALID,0.512109,
2009-09-04, 01:16:04,VALID,917.56,VALID,0,VALID,96.8174,VALID,0,VALID,19.9353,VALID,155,VALID,0.493359,
2009-09-04, 01:17:04,VALID,917.543,VALID,0,VALID,96.7945,VALID,0,VALID,19.9368,VALID,155,VALID,0.637109,
2009-09-04, 01:18:04,VALID,917.494,VALID,0,VALID,96.7945,VALID,0,VALID,19.9158,VALID,155,VALID,0.657812,
2009-09-04, 01:19:04,VALID,917.486,VALID,0,VALID,96.7716,VALID,0,VALID,19.9158,VALID,155,VALID,0.74375,
2009-09-04, 01:20:04,VALID,917.501,VALID,0,VALID,96.7793,VALID,0,VALID,19.9158,VALID,155,VALID,0.70625,
2009-09-04, 01:21:04,VALID,917.52,VALID,0,VALID,96.7869,VALID,0.107441,VALID,19.9368,VALID,155,VALID,0.8125,
2009-09-04, 01:22:04,VALID,917.513,VALID,0,VALID,96.7564,VALID,0,VALID,19.9368,VALID,155,VALID,0.484766,
2009-09-04, 01:23:04,VALID,917.451,VALID,0,VALID,96.764,VALID,0,VALID,19.8978,VALID,155,VALID,0.492969,
2009-09-04, 01:24:04,VALID,917.433,VALID,0,VALID,96.7869,VALID,0.107441,VALID,19.8978,VALID,155,VALID,0.525,
2009-09-04, 01:25:04,VALID,917.393,VALID,0,VALID,96.7564,VALID,0,VALID,19.8768,VALID,155,VALID,0.541797,
2009-09-04, 01:26:04,VALID,917.311,VALID,0,VALID,96.7793,VALID,0,VALID,19.8978,VALID,155,VALID,0.739844,
2009-09-04, 01:27:04,VALID,917.297,VALID,0,VALID,96.7793,VALID,0,VALID,19.8573,VALID,155,VALID,0.667578,
2009-09-04, 01:28:04,VALID,917.251,VALID,0,VALID,96.7716,VALID,0,VALID,19.8783,VALID,155,VALID,0.501953,
2009-09-04, 01:29:04,VALID,917.288,VALID,0,VALID,96.7869,VALID,0,VALID,19.8573,VALID,155,VALID,0.519531,
2009-09-04, 01:30:04,VALID,917.274,VALID,0,VALID,96.7869,VALID,0,VALID,19.8573,VALID,155,VALID,0.650391,
2009-09-04, 01:31:04,VALID,917.245,VALID,0,VALID,96.764,VALID,0,VALID,19.8573,VALID,155,VALID,0.729297,
2009-09-04, 01:32:04,VALID,917.241,VALID,0,VALID,96.7716,VALID,0,VALID,19.8573,VALID,155,VALID,0.632031,
2009-09-04, 01:33:04,VALID,917.19,VALID,0,VALID,96.7793,VALID,0,VALID,19.8378,VALID,155,VALID,0.769922,
2009-09-04, 01:34:04,VALID,917.173,VALID,0,VALID,96.7564,VALID,0,VALID,19.8783,VALID,155,VALID,0.950781,
2009-09-04, 01:35:04,VALID,917.16,VALID,0,VALID,96.764,VALID,0,VALID,19.8573,VALID,155,VALID,0.801172,
2009-09-04, 01:36:04,VALID,917.158,VALID,0,VALID,96.764,VALID,0,VALID,19.8978,VALID,155,VALID,0.698047,
2009-09-04, 01:37:04,VALID,917.107,VALID,0,VALID,96.7488,VALID,0,VALID,19.8783,VALID,155,VALID,0.710938,
2009-09-04, 01:38:04,VALID,917.136,VALID,0,VALID,96.7564,VALID,0,VALID,19.8783,VALID,155,VALID,1.01953,
2009-09-04, 01:39:04,VALID,917.174,VALID,0,VALID,96.764,VALID,0,VALID,19.8963,VALID,155,VALID,0.838672,
2009-09-04, 01:40:04,VALID,917.138,VALID,0,VALID,96.7716,VALID,0,VALID,19.8768,VALID,155,VALID,0.919531,
2009-09-04, 01:41:04,VALID,917.17,VALID,0,VALID,96.764,VALID,0,VALID,19.9173,VALID,155,VALID,0.849609,
2009-09-04, 01:42:04,VALID,917.093,VALID,0,VALID,96.7488,VALID,0,VALID,19.9173,VALID,155,VALID,0.710938,
2009-09-04, 01:43:04,VALID,917.08,VALID,0,VALID,96.7793,VALID,0,VALID,19.9158,VALID,155,VALID,0.865625,
2009-09-04, 01:44:04,VALID,917.055,VALID,0,VALID,96.7869,VALID,0,VALID,19.9173,VALID,155,VALID,0.876172,
2009-09-04, 01:45:04,VALID,917.012,VALID,0,VALID,96.7793,VALID,0,VALID,19.9173,VALID,155,VALID,0.41875,
2009-09-04, 01:46:04,VALID,916.99,VALID,0,VALID,96.7716,VALID,0,VALID,19.9173,VALID,155,VALID,0.7,
2009-09-04, 01:47:04,VALID,916.941,VALID,0,VALID,96.7716,VALID,0,VALID,19.8963,VALID,155,VALID,0.719141,
2009-09-04, 01:48:04,VALID,916.999,VALID,0,VALID,96.7488,VALID,0,VALID,19.8978,VALID,155,VALID,0.594531,
2009-09-04, 01:49:04,VALID,916.971,VALID,0,VALID,96.7716,VALID,0,VALID,19.8768,VALID,155,VALID,0.703125,
2009-09-04, 01:50:04,VALID,916.974,VALID,0,VALID,96.764,VALID,0,VALID,19.8768,VALID,155,VALID,0.718359,
2009-09-04, 01:51:04,VALID,916.944,VALID,0,VALID,96.7716,VALID,0,VALID,19.8963,VALID,155,VALID,0.744531,
2009-09-04, 01:52:04,VALID,916.941,VALID,0,VALID,96.7793,VALID,0,VALID,19.8963,VALID,155,VALID,0.871484,
2009-09-04, 01:53:04,VALID,916.908,VALID,0,VALID,96.7945,VALID,0,VALID,19.9173,VALID,155,VALID,0.669531,
2009-09-04, 01:54:04,VALID,916.871,VALID,0,VALID,96.7869,VALID,0,VALID,19.8963,VALID,155,VALID,0.685938,
2009-09-04, 01:55:04,VALID,916.84,VALID,0,VALID,96.7945,VALID,0,VALID,19.8978,VALID,155,VALID,0.646484,
2009-09-04, 01:56:04,VALID,916.834,VALID,0,VALID,96.7716,VALID,0,VALID,19.8963,VALID,155,VALID,0.801953,
2009-09-04, 01:57:04,VALID,916.847,VALID,0,VALID,96.764,VALID,0,VALID,19.8963,VALID,155,VALID,0.734375,
2009-09-04, 01:58:04,VALID,916.856,VALID,0,VALID,96.7488,VALID,0,VALID,19.9173,VALID,155,VALID,0.917188,
2009-09-04, 01:59:04,VALID,916.872,VALID,0,VALID,96.7259,VALID,0.107441,VALID,19.8963,VALID,155,VALID,0.560547,
2009-09-04, 02:00:04,VALID,916.847,VALID,0,VALID,96.7183,VALID,0,VALID,19.8768,VALID,155,VALID,0.614453,
2009-09-04, 02:01:04,VALID,916.826,VALID,0,VALID,96.6878,VALID,0.107441,VALID,19.8768,VALID,155,VALID,0.471094,
2009-09-04, 02:02:04,VALID,916.795,VALID,0,VALID,96.7107,VALID,0,VALID,19.9173,VALID,155,VALID,0.520312,
2009-09-04, 02:03:04,VALID,916.755,VALID,0,VALID,96.6954,VALID,0.107441,VALID,19.9173,VALID,155,VALID,0.5875,
2009-09-04, 02:04:04,VALID,916.724,VALID,0,VALID,96.6725,VALID,0,VALID,19.9353,VALID,155,VALID,0.227344,
2009-09-04, 02:05:04,VALID,916.688,VALID,0,VALID,96.6573,VALID,0,VALID,19.9353,VALID,155,VALID,0.420312,
2009-09-04, 02:06:04,VALID,916.659,VALID,0,VALID,96.642,VALID,0,VALID,19.9158,VALID,155,VALID,0.451562,
2009-09-04, 02:07:04,VALID,916.706,VALID,0,VALID,96.6115,VALID,0,VALID,19.9353,VALID,155,VALID,0.538672,
2009-09-04, 02:08:04,VALID,916.711,VALID,0,VALID,96.5963,VALID,0,VALID,19.9353,VALID,155,VALID,0.540234,
2009-09-04, 02:09:04,VALID,916.692,VALID,0,VALID,96.5887,VALID,0,VALID,19.9563,VALID,155,VALID,0.525391,
2009-09-04, 02:10:04,VALID,916.677,VALID,0,VALID,96.5734,VALID,0,VALID,19.9758,VALID,155,VALID,0.646875,
2009-09-04, 02:11:04,VALID,916.665,VALID,0,VALID,96.5429,VALID,0,VALID,19.9548,VALID,155,VALID,0.542188,
2009-09-04, 02:12:04,VALID,916.654,VALID,0,VALID,96.5201,VALID,0,VALID,19.9548,VALID,155,VALID,0.3875,
2009-09-04, 02:13:04,VALID,916.636,VALID,0,VALID,96.4819,VALID,0,VALID,19.9548,VALID,155,VALID,0.513672,
2009-09-04, 02:14:04,VALID,916.614,VALID,0,VALID,96.4743,VALID,0,VALID,19.9353,VALID,155,VALID,0.635938,
2009-09-04, 02:15:04,VALID,916.552,VALID,0,VALID,96.4591,VALID,0,VALID,19.9563,VALID,155,VALID,0.319531,
2009-09-04, 02:16:04,VALID,916.617,VALID,0,VALID,96.4515,VALID,0.107441,VALID,19.9353,VALID,155,VALID,0.247266,
2009-09-04, 02:17:04,VALID,916.64,VALID,0,VALID,96.4667,VALID,0.107441,VALID,19.8963,VALID,155,VALID,0.421875,
2009-09-04, 02:18:04,VALID,916.596,VALID,0,VALID,96.4667,VALID,0,VALID,19.8963,VALID,155,VALID,0.44375,
2009-09-04, 02:19:04,VALID,916.588,VALID,0,VALID,96.4438,VALID,0,VALID,19.8768,VALID,155,VALID,0.774219,
2009-09-04, 02:20:04,VALID,916.592,VALID,0,VALID,96.4896,VALID,0,VALID,19.8978,VALID,155,VALID,0.444531,
2009-09-04, 02:21:04,VALID,916.573,VALID,0,VALID,96.5124,VALID,0,VALID,19.8768,VALID,155,VALID,0.826563,
2009-09-04, 02:22:04,VALID,916.578,VALID,0,VALID,96.5048,VALID,0.107441,VALID,19.8768,VALID,155,VALID,0.838672,
2009-09-04, 02:23:04,VALID,916.594,VALID,0,VALID,96.4972,VALID,0,VALID,19.8768,VALID,155,VALID,0.814844,
2009-09-04, 02:24:04,VALID,916.542,VALID,0,VALID,96.5048,VALID,0,VALID,19.8978,VALID,155,VALID,1.09023,
2009-09-04, 02:25:04,VALID,916.51,VALID,0,VALID,96.5124,VALID,0,VALID,19.8768,VALID,155,VALID,0.951172,
2009-09-04, 02:26:04,VALID,916.582,VALID,0,VALID,96.4972,VALID,0,VALID,19.8768,VALID,155,VALID,0.587891,
2009-09-04, 02:27:04,VALID,916.599,VALID,0,VALID,96.5048,VALID,0,VALID,19.8768,VALID,155,VALID,0.565625,
2009-09-04, 02:28:04,VALID,916.629,VALID,0,VALID,96.4743,VALID,0,VALID,19.8768,VALID,155,VALID,0.484375,
2009-09-04, 02:29:04,VALID,916.619,VALID,0,VALID,96.4591,VALID,0,VALID,19.8768,VALID,155,VALID,0.434766,
2009-09-04, 02:30:04,VALID,916.605,VALID,0,VALID,96.4515,VALID,0.107441,VALID,19.8768,VALID,155,VALID,0.529688,
2009-09-04, 02:31:04,VALID,916.595,VALID,0,VALID,96.4286,VALID,0.107441,VALID,19.8573,VALID,155,VALID,0.487891,
2009-09-04, 02:32:04,VALID,916.61,VALID,0,VALID,96.4362,VALID,0,VALID,19.8768,VALID,155,VALID,0.768359,
2009-09-04, 02:33:04,VALID,916.582,VALID,0,VALID,96.4362,VALID,0,VALID,19.8573,VALID,155,VALID,1.06875,
2009-09-04, 02:34:04,VALID,916.583,VALID,0,VALID,96.421,VALID,0.107441,VALID,19.8768,VALID,155,VALID,0.699219,
2009-09-04, 02:35:04,VALID,916.62,VALID,0,VALID,96.421,VALID,0,VALID,19.8963,VALID,155,VALID,1.09766,
2009-09-04, 02:36:04,VALID,916.667,VALID,0,VALID,96.3905,VALID,0,VALID,19.8963,VALID,155,VALID,0.849609,
2009-09-04, 02:37:04,VALID,916.665,VALID,0,VALID,96.3905,VALID,0,VALID,19.9173,VALID,155,VALID,0.745703,
2009-09-04, 02:38:04,VALID,916.71,VALID,0,VALID,96.3752,VALID,0,VALID,19.9368,VALID,155,VALID,0.738281,
2009-09-04, 02:39:04,VALID,916.699,VALID,0,VALID,96.3295,VALID,0,VALID,19.9158,VALID,155,VALID,0.564453,
2009-09-04, 02:40:04,VALID,916.7,VALID,0,VALID,96.3371,VALID,0,VALID,19.9158,VALID,155,VALID,0.814453,
2009-09-04, 02:41:04,VALID,916.706,VALID,0,VALID,96.3524,VALID,0,VALID,19.9158,VALID,155,VALID,0.842578,
2009-09-04, 02:42:04,VALID,916.712,VALID,0,VALID,96.2761,VALID,0,VALID,19.9158,VALID,155,VALID,0.775781,
2009-09-04, 02:43:04,VALID,916.686,VALID,0,VALID,96.2837,VALID,0,VALID,19.9158,VALID,155,VALID,1.07187,
2009-09-04, 02:44:04,VALID,916.653,VALID,0,VALID,96.2685,VALID,0,VALID,19.8963,VALID,155,VALID,0.765234,
2009-09-04, 02:45:04,VALID,916.66,VALID,0,VALID,96.2685,VALID,0,VALID,19.9158,VALID,155,VALID,0.573047,
2009-09-04, 02:46:04,VALID,916.688,VALID,0,VALID,96.2533,VALID,0,VALID,19.9158,VALID,155,VALID,0.471484,
2009-09-04, 02:47:04,VALID,916.698,VALID,0,VALID,96.2685,VALID,0,VALID,19.8963,VALID,155,VALID,0.448047,
2009-09-04, 02:48:04,VALID,916.699,VALID,0,VALID,96.2228,VALID,0,VALID,19.9173,VALID,155,VALID,0.204688,
2009-09-04, 02:49:04,VALID,916.689,VALID,0,VALID,96.2609,VALID,0,VALID,19.9173,VALID,155,VALID,0.0179687,
2009-09-04, 02:50:04,VALID,916.677,VALID,0,VALID,96.238,VALID,0,VALID,19.9173,VALID,155,VALID,0,
2009-09-04, 02:51:04,VALID,916.669,VALID,0,VALID,96.2151,VALID,0,VALID,19.9173,VALID,155,VALID,0,
2009-09-04, 02:52:04,VALID,916.649,VALID,0,VALID,96.1465,VALID,0,VALID,19.8573,VALID,155,VALID,0,
2009-09-04, 02:53:04,VALID,916.623,VALID,0,VALID,96.1694,VALID,0,VALID,19.8783,VALID,155,VALID,0.326172,
2009-09-04, 02:54:04,VALID,916.625,VALID,0,VALID,96.1923,VALID,0,VALID,19.8378,VALID,155,VALID,0.283984,
2009-09-04, 02:55:04,VALID,916.621,VALID,0,VALID,96.1999,VALID,0,VALID,19.8183,VALID,155,VALID,0.162109,
2009-09-04, 02:56:04,VALID,916.675,VALID,0,VALID,96.2609,VALID,0,VALID,19.8588,VALID,155,VALID,0.295312,
2009-09-04, 02:57:04,VALID,916.695,VALID,0.2,VALID,96.2609,VALID,0,VALID,19.8588,VALID,155,VALID,0.502734,
2009-09-04, 02:58:04,VALID,916.666,VALID,0,VALID,96.2914,VALID,0,VALID,19.8588,VALID,155,VALID,0.599219,
2009-09-04, 02:59:04,VALID,916.654,VALID,0,VALID,96.299,VALID,0,VALID,19.8783,VALID,155,VALID,0.483984,
2009-09-04, 03:00:04,VALID,916.659,VALID,0,VALID,96.2837,VALID,0,VALID,19.8573,VALID,155,VALID,0.334766,
2009-09-04, 03:01:04,VALID,916.671,VALID,0,VALID,96.2685,VALID,0,VALID,19.8588,VALID,155,VALID,0.566016,
2009-09-04, 03:02:04,VALID,916.652,VALID,0,VALID,96.2075,VALID,0,VALID,19.8588,VALID,155,VALID,0.612109,
2009-09-04, 03:03:04,VALID,916.604,VALID,0,VALID,96.2228,VALID,0,VALID,19.8783,VALID,155,VALID,0.454297,
2009-09-04, 03:04:04,VALID,916.602,VALID,0,VALID,96.2228,VALID,0,VALID,19.8378,VALID,155,VALID,0.373828,
2009-09-04, 03:05:04,VALID,916.583,VALID,0,VALID,96.238,VALID,0,VALID,19.8783,VALID,155,VALID,0.489844,
2009-09-04, 03:06:04,VALID,916.627,VALID,0,VALID,96.2151,VALID,0,VALID,19.8783,VALID,155,VALID,0.464063,
2009-09-04, 03:07:04,VALID,916.628,VALID,0,VALID,96.1694,VALID,0,VALID,19.8783,VALID,155,VALID,0.266797,
2009-09-04, 03:08:04,VALID,916.636,VALID,0,VALID,96.1541,VALID,0,VALID,19.8978,VALID,155,VALID,0.430078,
2009-09-04, 03:09:04,VALID,916.629,VALID,0,VALID,96.0855,VALID,0,VALID,19.8768,VALID,155,VALID,0.385156,
2009-09-04, 03:10:04,VALID,916.567,VALID,0,VALID,96.0398,VALID,0,VALID,19.8768,VALID,155,VALID,0.25625,
2009-09-04, 03:11:04,VALID,916.545,VALID,0,VALID,96.0322,VALID,0,VALID,19.8768,VALID,155,VALID,0.176563,
2009-09-04, 03:12:04,VALID,916.496,VALID,0,VALID,96.0322,VALID,0,VALID,19.8978,VALID,155,VALID,0.203125,
2009-09-04, 03:13:04,VALID,916.484,VALID,0,VALID,95.9636,VALID,0,VALID,19.8978,VALID,155,VALID,0.755859,
2009-09-04, 03:14:04,VALID,916.457,VALID,0,VALID,95.8263,VALID,0,VALID,19.8393,VALID,155,VALID,0.960547,
2009-09-04, 03:15:04,VALID,916.393,VALID,0,VALID,95.7882,VALID,0,VALID,19.7988,VALID,155,VALID,1.13672,
2009-09-04, 03:16:04,VALID,916.418,VALID,0,VALID,95.895,VALID,0,VALID,19.7793,VALID,155,VALID,1.37109,
2009-09-04, 03:17:04,VALID,916.436,VALID,0,VALID,96.0245,VALID,0,VALID,19.7598,VALID,46,VALID,1.41602,
2009-09-04, 03:18:04,VALID,916.41,VALID,0,VALID,96.0474,VALID,0,VALID,19.7208,VALID,49,VALID,1.32656,
2009-09-04, 03:19:04,VALID,916.398,VALID,0,VALID,96.1465,VALID,0,VALID,19.7418,VALID,50,VALID,1.24727,
2009-09-04, 03:20:04,VALID,916.37,VALID,0,VALID,96.2304,VALID,0,VALID,19.7013,VALID,50,VALID,1.41445,
2009-09-04, 03:21:04,VALID,916.366,VALID,0,VALID,96.299,VALID,0,VALID,19.7223,VALID,50,VALID,0.796484,
2009-09-04, 03:22:04,VALID,916.333,VALID,0,VALID,96.3676,VALID,0,VALID,19.7013,VALID,50,VALID,1.14883,
2009-09-04, 03:23:04,VALID,916.306,VALID,0,VALID,96.421,VALID,0,VALID,19.7013,VALID,50,VALID,0.878516,
2009-09-04, 03:24:04,VALID,916.302,VALID,0,VALID,96.4362,VALID,0,VALID,19.7013,VALID,50,VALID,1.03945,
2009-09-04, 03:25:04,VALID,916.286,VALID,0,VALID,96.4972,VALID,0,VALID,19.7208,VALID,35,VALID,1.4293,
2009-09-04, 03:26:04,VALID,916.291,VALID,0,VALID,96.5353,VALID,0,VALID,19.7613,VALID,3,VALID,0.995313,
2009-09-04, 03:27:04,VALID,916.335,VALID,0,VALID,96.5429,VALID,0,VALID,19.7418,VALID,3,VALID,0.676172,
2009-09-04, 03:28:04,VALID,916.343,VALID,0,VALID,96.5734,VALID,0,VALID,19.7613,VALID,3,VALID,0.530859,
2009-09-04, 03:29:04,VALID,916.33,VALID,0,VALID,96.5429,VALID,0,VALID,19.7418,VALID,3,VALID,0.33125,
2009-09-04, 03:30:04,VALID,916.328,VALID,0,VALID,96.6115,VALID,0,VALID,19.7403,VALID,3,VALID,0.655859,
2009-09-04, 03:31:04,VALID,916.293,VALID,0,VALID,96.5963,VALID,0,VALID,19.7613,VALID,3,VALID,0.362109,
2009-09-04, 03:32:04,VALID,916.264,VALID,0,VALID,96.6649,VALID,0,VALID,19.7808,VALID,3,VALID,0.330859,
2009-09-04, 03:33:04,VALID,916.257,VALID,0,VALID,96.6268,VALID,0,VALID,19.7613,VALID,3,VALID,0.466797,
2009-09-04, 03:34:04,VALID,916.235,VALID,0,VALID,96.6344,VALID,0,VALID,19.7403,VALID,3,VALID,0.457812,
2009-09-04, 03:35:04,VALID,916.199,VALID,0,VALID,96.5887,VALID,0,VALID,19.7613,VALID,3,VALID,0.501172,
2009-09-04, 03:36:04,VALID,916.198,VALID,0,VALID,96.6344,VALID,0,VALID,19.7613,VALID,3,VALID,0.233594,
2009-09-04, 03:37:04,VALID,916.271,VALID,0,VALID,96.6497,VALID,0,VALID,19.7403,VALID,3,VALID,0,
2009-09-04, 03:38:04,VALID,916.23,VALID,0,VALID,96.6878,VALID,0,VALID,19.7808,VALID,3,VALID,0,
2009-09-04, 03:39:04,VALID,916.25,VALID,0,VALID,96.6649,VALID,0,VALID,19.8003,VALID,3,VALID,0.698828,
2009-09-04, 03:40:04,VALID,916.199,VALID,0,VALID,96.703,VALID,0,VALID,19.7808,VALID,3,VALID,0.929688,
2009-09-04, 03:41:04,VALID,916.173,VALID,0,VALID,96.6954,VALID,0,VALID,19.8003,VALID,3,VALID,0.621484,
2009-09-04, 03:42:04,VALID,916.19,VALID,0,VALID,96.703,VALID,0,VALID,19.7988,VALID,3,VALID,0.232422,
2009-09-04, 03:43:04,VALID,916.176,VALID,0,VALID,96.6802,VALID,0,VALID,19.7988,VALID,3,VALID,0,
2009-09-04, 03:44:04,VALID,916.133,VALID,0,VALID,96.703,VALID,0,VALID,19.7988,VALID,3,VALID,0.417188,